Date,TemperatureHighF,TemperatureAvgF,TemperatureLowF,DewpointHighF,DewpointAvgF,DewpointLowF,HumidityHigh,HumidityAvg,HumidityLow,PressureMaxIn,PressureMinIn,WindSpeedMaxMPH,WindSpeedAvgMPH,GustSpeedMaxMPH,PrecipitationSumIn
2013-9-1,92,81,73,-100,-100,-100,0,0,100,0.00,40.00,11,3,20,0.00
2013-9-2,91,80,70,-100,-100,-100,0,0,100,0.00,40.00,10,3,16,0.00
2013-9-3,90,80,71,-100,-100,-100,0,0,100,0.00,40.00,11,4,17,0.00
2013-9-4,88,79,70,-100,-100,-100,0,0,100,0.00,40.00,6,2,8,0.00
2013-9-5,87,79,69,-100,-100,-100,0,0,100,0.00,40.00,6,2,8,0.00
2013-9-6,84,77,71,-100,-100,-100,0,0,100,0.00,40.00,15,6,20,0.00
2013-9-7,85,75,67,-100,-100,-100,0,0,100,0.00,40.00,8,3,9,0.00
2013-9-8,88,75,65,-100,-100,-100,0,0,100,0.00,40.00,7,3,8,0.00
2013-9-9,91,80,72,-100,-100,-100,0,0,100,0.00,40.00,8,3,11,0.00
2013-9-10,91,80,71,-100,-100,-100,0,0,100,0.00,40.00,8,2,11,0.00
2013-9-11,89,77,66,-100,-100,-100,0,0,100,0.00,40.00,6,2,8,0.00
2013-9-12,90,75,66,-100,-100,-100,0,0,100,0.00,40.00,15,3,23,0.00
2013-9-13,87,78,69,-100,-100,-100,0,0,100,0.00,40.00,13,4,14,0.00
2013-9-14,80,72,64,-100,-100,-100,0,0,100,0.00,40.00,14,9,22,0.00
2013-9-15,88,74,66,-100,-100,-100,0,0,100,0.00,40.00,6,3,9,0.00
2013-9-16,87,78,72,-100,-100,-100,0,0,100,0.00,40.00,7,2,10,0.00
2013-9-17,76,73,70,-100,-100,-100,0,0,100,0.00,40.00,16,8,20,0.00
2013-9-18,70,66,64,-100,-100,-100,0,0,100,0.00,40.00,11,6,14,0.00
2013-9-19,81,71,61,-100,-100,-100,0,0,100,0.00,40.00,8,2,9,0.00
2013-9-20,90,73,63,-100,-100,-100,0,0,100,0.00,40.00,6,2,7,0.00
2013-9-21,80,73,67,-100,-100,-100,0,0,100,0.00,40.00,6,2,14,0.00
2013-9-22,80,71,63,-100,-100,-100,0,0,100,0.00,40.00,15,7,20,0.00
2013-9-23,79,70,59,-100,-100,-100,0,0,100,0.00,40.00,9,3,16,0.00
2013-9-24,78,70,63,-100,-100,-100,0,0,100,0.00,40.00,8,2,13,0.00
2013-9-25,69,68,65,-100,-100,-100,0,0,100,0.00,40.00,10,5,14,0.00
2013-9-26,76,68,63,-100,-100,-100,0,0,100,0.00,40.00,13,8,21,0.00
2013-9-27,77,68,59,-100,-100,-100,0,0,100,0.00,40.00,17,9,21,0.00
2013-9-28,74,66,57,-100,-100,-100,0,0,100,0.00,40.00,17,9,24,0.00
2013-9-29,76,65,57,-100,-100,-100,0,0,100,0.00,40.00,11,6,14,0.00
2013-9-30,76,65,54,-100,-100,-100,0,0,100,0.00,40.00,5,2,9,0.00